Location: Laas
(43.4693°N, 0.3073°E)
Time: 15:53:03
(UTC+00:00)

USA 307 - Pass Details

Date: 25 October 2020
Orbit: 569 x 579 km, 54.0° (Epoch: 23 November)

Event Time Altitude Azimuth Distance (km) Brightness Sun altitude
Rises 18:28:28 0° 306° (NW) 2,788 7.3 -16.8°
Reaches altitude 10° 18:31:02 10° 319° (NW) 1,886 6.1 -17.2°
Maximum altitude 18:34:40 26° 17° (NNE) 1,142 4.2 -17.9°
Enters shadow 18:35:30 25° 37° (NE) 1,191 4.2 -18.1°
